Location: AMC Kingsman Pond Shelter
(44.1376°N, 71.7326°W)
Time: 05:37:22
(UTC+00:00)

Daily predictions for brighter satellites

Satellite Brightness Start Highest point End
(mag) Time Altitude Azimuth Time Altitude Azimuth Time Altitude Azimuth
Cosmos 2026 Rocket 4.4 00:55:55 10° SSW 01:02:03 71° W 01:08:09 10° N
Cosmos 2082 Rocket 2.9 00:57:57 10° SW 01:03:36 64° WNW 01:09:17 10° NNE
Cosmos 2333 Rocket 3.8 01:00:42 10° N 01:05:12 23° NE 01:09:41 10° E
Cosmos 1707 2.6 01:01:59 10° S 01:05:31 57° E 01:09:04 10° NNE
Cosmos 2369 4.1 01:00:33 10° NNW 01:06:14 65° WSW 01:11:53 10° S
RESURS DK-1 3.7 01:06:22 10° N 01:09:51 26° NE 01:13:19 10° ESE
MOS 1-B Rocket 4.4 01:05:22 10° S 01:11:28 63° WSW 01:17:04 10° NNW
PSLV R/B 4.3 01:08:19 10° S 01:11:47 52° W 01:15:13 10° NNW
ERS-1 Rocket 3.7 01:10:24 10° SE 01:15:02 39° ENE 01:19:42 10° N
Atlas Centaur 2 3.9 01:08:58 10° WSW 01:15:37 30° S 01:22:34 10° SE
SJ 16-02 3.3 01:14:54 10° ESE 01:15:56 11° E 01:16:58 10° E
Cosmos 841 Rocket 4.1 01:12:25 10° N 01:17:27 43° ENE 01:22:27 10° SE
Cosmos 1763 Rocket 4.0 01:13:10 10° NNW 01:18:21 62° WSW 01:23:25 10° S
USA 234 3.4 01:13:20 10° ENE 01:19:41 51° SE 01:26:00 10° SSW
MetOp-B 4.2 01:15:03 10° SSE 01:20:21 68° ENE 01:25:41 10° N
CZ-4C R/B 3.4 01:16:22 10° NNE 01:20:30 65° ESE 01:24:35 10° S
Cosmos 1674 3.5 01:18:50 10° SSW 01:22:11 48° W 01:25:34 10° N
Terra 2.6 01:18:14 10° SE 01:22:33 37° ENE 01:26:53 10° N
Spot 2 Rocket 4.2 01:24:09 10° SE 01:28:49 39° ENE 01:33:32 10° N
SL-27 R/B 3.7 01:28:29 13° SE 01:29:38 16° E 01:31:24 10° ENE
SL-4 R/B 4.0 01:28:59 10° WNW 01:32:17 28° N 01:35:47 10° NE
BREEZE-M DEB (TANK) 3.1 01:32:46 10° WSW 01:36:01 82° SSE 01:46:32 10° ENE
Cosmos 1300 3.8 01:33:59 10° NNE 01:37:03 26° ENE 01:39:22 14° SE
IRS-1A Rocket 4.2 01:32:02 10° SSE 01:37:31 78° ENE 01:43:03 10° NNW
Cosmos 1733 Rocket 4.2 01:37:08 10° NNE 01:40:59 29° ENE 01:44:04 14° SE
Cosmos 1980 Rocket 4.1 01:36:34 10° NW 01:41:08 25° WSW 01:45:40 10° SSW
ARGOS Delta rocket 3.7 01:36:41 10° S 01:41:10 82° W 01:45:34 10° NNW
Cosmos 1441 Rocket 3.3 01:39:32 10° NNW 01:43:08 67° W 01:46:44 10° S
Cosmos 2322 Rocket 2.6 01:38:06 10° NNW 01:43:41 53° ENE 01:48:23 14° SE
Cosmos 1400 Rocket 2.7 01:40:49 10° S 01:44:39 65° E 01:48:29 10° NNE
Meteor 1-22 Rocket 4.3 01:40:29 10° N 01:46:10 74° E 01:51:41 12° SSE
Meteor 2-10 Rocket 3.9 01:41:11 10° N 01:46:40 56° ENE 01:51:05 15° SSE
Cosmos 1908 3.6 01:44:26 10° NNW 01:47:58 55° W 01:51:30 10° S
Okean-O 3.7 01:44:28 10° S 01:48:39 42° W 01:52:52 10° NNW
Meteor 1-4 Rocket 4.1 01:49:01 13° E 01:49:28 13° E 01:50:56 10° ENE
SL-08 ROCKET BODY 4.4 01:43:32 10° S 01:49:38 72° E 01:55:40 10° NNE
ATLAS CENTAUR R/B 1.0 01:46:44 10° SSW 01:50:07 54° ESE 01:53:37 10° NE
Cosmos 1356 Rocket 4.0 01:46:46 13° SSE 01:50:08 40° E 01:54:05 10° NNE
Ariane Rocket 3.2 01:49:18 14° SSE 01:53:33 62° ENE 01:58:34 10° N
Cosmos 2278 4.1 01:51:01 10° NNW 01:56:40 63° WSW 02:01:45 13° S
USA 245 3.2 01:54:39 16° SSE 01:57:24 88° WSW 02:01:48 10° NNW
EXPRESS MD2 4.3 01:58:02 10° W 02:00:39 29° NNW 02:02:41 10° NE
ATLAS 2AS CENTAUR R/B 3.0 01:54:16 10° NNW 02:01:02 58° NE 02:06:25 16° SE
Timation 1 Rocket 4.4 01:58:32 10° SSW 02:04:29 86° WNW 02:10:30 10° NNE
Cosmos 1315 Rocket 4.3 02:03:13 18° ESE 02:04:31 20° E 02:07:31 10° NE
Cosmos 1953 4.2 02:02:05 10° NNE 02:04:35 17° ENE 02:06:11 13° E
Cosmos 1869 Rocket 4.1 02:01:01 10° NNW 02:05:24 57° W 02:09:36 11° S
Cosmos 2228 Rocket 3.2 02:02:00 13° S 02:05:58 66° E 02:10:30 10° NNE
Okean O Rocket 4.2 02:05:06 10° SW 02:07:39 15° W 02:10:13 10° NW
Cosmos 2219 Rocket 3.2 02:02:42 10° N 02:07:54 35° NE 02:11:59 15° ESE
Cosmos 1850 Rocket 3.9 02:02:55 10° SSW 02:08:09 81° ESE 02:13:22 10° NNE
Meteor 1-21 4.4 02:03:37 13° S 02:08:40 58° E 02:14:23 10° NNE
BREEZE-M DEB (TANK) 2.6 02:06:43 10° NW 02:08:43 46° NNE 02:11:01 14° E
S3M 4.2 02:03:28 10° N 02:09:50 76° W 02:15:46 12° S
MOS 1 Rocket 3.6 02:07:54 16° SSE 02:12:16 89° ENE 02:17:35 10° NNW
BlueWalker 3 3.3 02:14:18 20° ESE 02:14:18 20° ESE 02:16:14 10° E
Landsat 4 3.4 02:11:53 23° SSE 02:13:53 88° ENE 02:17:20 10° NNW
Cosmos 2266 Rocket 4.4 02:11:50 10° SSW 02:18:06 65° W 02:24:30 10° N
Spot 1 4.4 02:15:14 10° NNE 02:19:45 55° ESE 02:22:58 20° S
Cosmos 968 Rocket 3.4 02:15:36 10° S 02:20:42 73° ESE 02:25:53 10° NNE
SeaSat 1 2.8 02:18:09 19° S 02:21:37 60° WSW 02:26:29 10° NW
SPOT 3 Rocket 3.6 02:20:05 19° S 02:23:52 79° WSW 02:29:03 10° NNW
Cosmos 1655 Rocket 4.1 02:18:23 10° S 02:24:47 83° W 02:31:14 10° N
MetOp-A 4.3 02:22:21 23° SE 02:25:33 58° ENE 02:30:43 10° N
SPOT 5 4.4 02:23:05 10° SSW 02:26:39 25° W 02:30:18 10° NW
SL-14 R/B 3.6 02:24:50 14° SSW 02:28:01 62° W 02:31:48 10° N
Cosmos 1741 Rocket 4.3 02:23:33 10° SSW 02:28:48 72° WNW 02:34:07 10° NNE
Landsat 5 3.4 02:26:25 10° NNE 02:30:27 66° ESE 02:32:47 25° S
Cosmos 839 Rocket 4.3 02:23:39 10° NNW 02:30:30 62° NE 02:34:39 21° SE
Cosmos 2360 Rocket 2.2 02:27:36 10° NNW 02:33:19 83° WSW 02:36:45 25° SSE
Cosmos 1346 Rocket 2.8 02:30:20 10° NNW 02:34:11 70° W 02:36:07 27° S
Cosmos 1814 Rocket 4.1 02:29:30 10° NNW 02:34:49 70° ENE 02:37:47 27° SE
Cosmos 1455 3.1 02:32:17 10° NNE 02:35:23 29° ENE 02:36:12 26° ESE
Okean 3 3.3 02:34:33 25° S 02:36:56 82° E 02:41:07 10° N
Cosmos 1862 Rocket 3.6 02:33:48 19° SSW 02:36:56 81° W 02:41:24 10° N
SL-16 R/B 3.5 02:40:17 10° NW 02:45:17 33° WSW 02:49:14 15° SSW
COSMOS 2455 4.0 02:44:44 23° ESE 02:45:51 24° ESE 02:50:32 10° NE
RESURS DK-1 3.7 02:43:59 10° NW 02:47:33 29° WSW 02:49:28 20° SSW
H-2A R/B 4.4 02:46:38 15° E 02:48:23 19° ENE 02:51:25 10° NNE
Cosmos 2333 Rocket 2.4 02:44:17 10° NNW 02:50:00 68° WSW 02:53:10 27° S
SJ 16-02 1.5 02:50:26 18° SSW 02:53:36 71° WNW 02:57:57 10° NNE
Terra 3.6 02:56:42 12° SSW 03:00:13 25° W 03:04:06 10° NW
CZ-2C R/B 3.9 02:58:25 10° NNE 03:02:44 50° E 03:03:53 39° SE
USA 234 3.9 02:56:22 10° NE 03:02:44 56° NNW 03:09:04 10° WSW
Atlas Centaur 2 4.1 02:57:57 10° WSW 03:03:54 22° SSW 03:05:10 21° S
DNEPR-1 R/B 4.2 02:58:03 10° NW 03:04:40 90° SSW 03:07:12 34° SSE
SL-08 R/B 4.4 03:04:04 28° S 03:07:30 80° E 03:13:37 10° N
Cosmos 2237 Rocket 4.0 03:04:05 10° N 03:08:31 23° NE 03:12:33 11° E
Aureole 3 4.5 03:06:45 19° SW 03:09:16 44° WNW 03:13:54 10° N
Cosmos 371 Rocket 4.4 03:11:23 26° ESE 03:11:44 26° E 03:15:42 10° NE
SL-4 R/B 3.5 03:08:09 10° NW 03:11:48 34° NNE 03:15:38 10° E
Cosmos 2322 3.9 03:07:06 10° NNW 03:12:45 63° ENE 03:15:19 32° SE
CZ-4C R/B 2.8 03:13:34 28° ESE 03:13:34 28° ESE 03:17:43 10° NE
Cosmos 2227 Rocket 4.3 03:13:49 11° E 03:14:04 11° E 03:15:41 10° ENE
ARIANE 5 R/B 2.7 03:15:40 44° SE 03:16:52 65° ENE 03:21:11 10° N
Okean 1-7 3.6 03:19:44 27° SW 03:21:48 53° WNW 03:26:03 10° N
Meteor 1-4 Rocket 4.0 03:20:59 20° WSW 03:22:02 24° WNW 03:24:33 10° NNW
Cosmos 2322 Rocket 3.8 03:22:52 10° NW 03:27:18 24° WSW 03:30:11 16° SW
ATLAS CENTAUR R/B 4.0 03:25:49 10° W 03:28:05 16° NW 03:30:24 10° N
Cosmos 1486 Rocket 4.3 03:29:37 41° SE 03:30:46 48° ESE 03:35:46 10° NNE
Okean 2 4.4 03:30:42 25° SW 03:32:26 38° WNW 03:36:13 10° N
Cosmos 2297 Rocket 3.0 03:32:34 31° ESE 03:33:24 33° ESE 03:38:23 10° NE
Cosmos 1908 Rocket 3.9 03:29:22 10° NNW 03:33:37 55° W 03:34:47 41° SW
Cosmos 1242 Rocket 3.0 03:34:06 41° NW 03:34:06 41° NW 03:36:27 10° N
GP-B 3.1 03:30:09 10° N 03:34:34 76° W 03:35:47 47° SSW
Cosmos 1782 Rocket 3.4 03:32:14 10° N 03:36:35 81° E 03:37:25 57° SSE
Spot 4 4.1 03:38:28 41° SE 03:39:51 56° ENE 03:44:34 10° N
Cosmos 1315 Rocket 4.4 03:38:28 20° WSW 03:40:27 30° WNW 03:44:01 10° N
Cosmos 1953 3.3 03:37:02 10° NNW 03:40:33 35° W 03:41:18 32° WSW
NOSS 5 (C) 4.4 03:40:40 10° NW 03:43:35 69° N 03:43:35 69° N
PSLV R/B 4.0 03:44:54 10° N 03:48:52 70° WNW 03:49:38 53° SW
H-2A R/B 4.0 03:46:57 10° NE 03:49:29 16° E 03:49:29 16° E
BlueWalker 3 2.4 03:48:25 17° WSW 03:51:10 59° NNW 03:54:53 10° NE
ATLAS 2AS CENTAUR R/B 3.7 03:45:46 10° NW 03:51:31 31° WSW 03:53:49 25° SW
Cosmos 2219 Rocket 3.1 03:46:39 10° NW 03:51:51 38° WSW 03:53:40 30° SW
Cosmos 1745 Rocket 4.1 03:48:52 33° SSW 03:51:54 78° W 03:58:18 10° N
Cosmos 1300 Rocket 3.4 03:49:06 10° N 03:53:24 81° W 03:54:04 63° S
NOSS 8 (H) 4.4 03:53:46 82° NE 03:53:46 82° NE 03:56:48 10° NE
Cosmos 405 Rocket 3.9 03:51:19 10° NNE 03:54:39 29° ENE 03:54:54 29° E
COSMOS 2428 2.7 03:49:20 10° NNW 03:55:02 77° WSW 03:56:49 45° S
Meteor 2-5 Rocket 4.1 03:53:35 40° SE 03:55:20 55° E 04:01:02 10° NNE
USA 281 3.3 03:54:58 37° S 03:57:39 66° WSW 04:04:12 10° NNW
Cosmos 304 Rocket 3.8 03:58:19 55° SE 03:58:58 61° ESE 04:03:40 10° NNE
Nadezhda 1 Rocket 4.2 03:55:39 10° NNW 04:01:50 60° W 04:04:20 35° SSW
Cosmos 1408 3.1 04:03:14 43° NW 04:03:14 43° NW 04:05:36 10° N
Cosmos 2263 Rocket 4.3 04:05:26 11° E 04:05:57 11° E 04:07:28 10° E
ALOS 2 2.6 04:06:37 60° SE 04:07:18 74° ENE 04:11:42 10° N
Cosmos 158 Rocket 4.1 04:02:58 10° NNW 04:08:13 63° WSW 04:09:23 49° SSW
Okean 2 Rocket 4.2 04:04:57 10° N 04:09:03 34° ENE 04:09:56 31° E
Cosmos 1455 4.2 04:07:20 10° NW 04:09:34 16° W 04:09:56 16° W
Cosmos 1674 Rocket 4.4 04:11:07 34° E 04:11:21 34° E 04:15:18 10° NNE
Cosmos 2181 Rocket 4.3 04:05:36 10° N 04:11:40 55° ENE 04:13:55 36° SE
Cosmos 1378 Rocket 4.1 04:11:41 41° ESE 04:11:56 42° E 04:16:04 10° NNE
BREEZE-M DEB (TANK) 4.5 04:13:55 10° NW 04:15:49 15° N 04:17:15 10° NE
Cosmos 2360 Rocket 4.4 04:14:29 10° WNW 04:16:20 12° W 04:18:11 10° WSW
Cosmos 1703 3.1 04:18:25 71° WNW 04:18:25 71° WNW 04:22:01 10° N
Cosmos 1892 3.8 04:19:11 30° ENE 04:19:11 30° ENE 04:21:46 10° NNE
BREEZE-M DEB (TANK) 4.0 04:11:40 10° WNW 04:22:12 52° N 04:25:30 10° ENE
H-2A R/B 3.1 04:22:37 42° WSW 04:23:00 44° W 04:27:05 10° NNW
Spot 2 4.4 04:23:04 55° S 04:24:11 77° WSW 04:29:16 10° NNW
Cosmos 2221 Rocket 4.0 04:27:05 46° ESE 04:27:26 48° E 04:31:43 10° NNE
Cosmos 773 Rocket 3.9 04:26:01 10° NNW 04:31:10 74° WSW 04:32:11 56° S
COSMOS 2455 3.2 04:27:48 25° SW 04:31:18 61° NW 04:37:19 10° NNE
Sich 1 Rocket 3.7 04:30:42 10° N 04:35:04 62° E 04:35:34 57° ESE
Cosmos 1174 4.2 04:34:13 10° NNW 04:39:04 62° NE 04:39:49 52° E
NOSS 0 Rocket 4.2 04:33:54 10° NW 04:39:56 53° WSW 04:41:34 42° SSW
CZ-3 Stage 3 4.4 04:21:20 10° W 04:41:36 30° SW 04:43:33 28° SSW
Cosmos 1825 2.5 04:45:15 52° NE 04:45:15 52° NE 04:48:05 10° NNE
Cosmos 1777 Rocket 4.1 04:44:04 46° SW 04:45:36 73° WNW 04:50:55 10° NNE
Cosmos 1503 Rocket 4.4 04:44:15 38° SW 04:46:06 60° WNW 04:51:22 10° NNE
SL-16 R/B 3.4 04:41:11 10° NNW 04:46:28 37° NE 04:50:10 18° ESE
CENTAUR R/B 2.5 04:46:01 46° SSE 04:47:09 53° ESE 04:53:40 10° NE
SL-4 R/B 1.9 04:46:46 10° WNW 04:50:42 78° WSW 04:50:42 78° WSW
Cosmos 371 Rocket 4.4 04:49:55 26° WSW 04:51:52 36° WNW 04:56:20 10° N
Cosmos 2237 Rocket 2.2 04:47:27 10° NNW 04:53:05 66° WSW 04:54:21 51° SSW
Cosmos 2227 Rocket 2.1 04:55:36 50° SSW 04:57:07 81° ESE 05:02:49 10° NNE
Nadezhda 3 Rocket 4.3 04:52:29 10° N 04:58:41 59° ENE 05:01:13 35° SE
GEOS 3 Rocket 3.6 04:54:03 10° NE 04:59:09 60° SE 04:59:59 52° SSE
Meteor 1-24 Rocket 4.5 04:58:53 31° SW 05:01:08 44° WNW 05:06:32 10° N
CZ-4C R/B 3.0 04:58:36 20° WSW 05:01:25 40° NW 05:06:47 10° NNE
Cosmos 1980 4.0 05:00:51 10° NW 05:06:16 48° WSW 05:07:17 43° SW
Cosmos 2184 Rocket 4.0 05:04:30 44° S 05:06:43 88° W 05:13:09 10° N
Okean 1 Rocket 2.9 05:02:31 10° N 05:06:54 87° E 05:07:21 72° SSE
PSLV R/B 4.3 05:09:30 10° N 05:13:27 39° WNW 05:14:11 36° W
Cosmos 2297 Rocket 3.2 05:14:19 23° WSW 05:17:19 40° WNW 05:22:38 10° NNE
Aureole 1 Rocket 3.2 05:21:02 48° E 05:21:02 48° E 05:24:58 10° NNE
Meteor 1-21 Rocket 4.4 05:19:14 44° SSE 05:21:02 67° E 05:26:41 10° NNE
Cosmos 2219 3.2 05:19:41 48° S 05:21:10 70° ESE 05:26:46 10° NNE
Cosmos 2084 Rocket 4.5 05:19:51 29° W 05:21:23 40° NW 05:25:19 10° NNE
Cosmos 2154 Rocket 3.9 05:21:34 43° SSW 05:23:47 81° W 05:30:07 10° N
H-2A R/B 2.6 05:21:32 10° N 05:25:36 45° WNW 05:26:17 41° W
Cosmos 1898 Rocket 4.0 05:25:01 40° SE 05:26:10 47° ESE 05:31:06 10° NNE
Cosmos 1975 Rocket 3.5 05:28:55 44° SE 05:29:38 49° E 05:33:53 10° NNE
BlueWalker 3 4.4 05:26:54 10° WNW 05:29:54 22° N 05:32:54 10° NE
NOSS 3-2 (A) 3.1 05:34:24 49° SSW 05:35:49 75° SE 05:41:49 10° NE
Cosmos 292 Rocket 3.7 05:35:18 56° S 05:36:14 75° ESE 05:41:03 10° NNE
Resurs 1-4 Rocket 4.1 05:34:46 10° NE 05:38:23 18° E 05:41:06 13° SE
SL-8 Rocket 4.5 05:37:12 30° SSE 05:39:57 50° E 05:45:54 10° NNE
NOSS 3-2 (C) 3.8 05:41:30 33° SE 05:42:42 37° ESE 05:48:04 10° NE
Cosmos 1455 Rocket 3.0 05:38:42 10° N 05:43:10 89° E 05:44:01 58° S
Elektron 3 4.1 05:43:18 10° NW 05:48:38 77° SW 05:48:57 70° S
Helios 1A Rocket 3.0 05:48:09 49° ESE 05:48:53 61° ENE 05:52:39 10° N
Cosmos 2263 Rocket 2.1 05:47:05 44° SSW 05:48:55 82° ESE 05:54:30 10° NNE
Cosmos 1461 2.9 05:53:11 54° SE 05:53:22 54° ESE 05:57:11 10° NE
Cosmos 1025 Rocket 3.6 05:52:53 40° WSW 05:53:38 44° WNW 05:57:46 10° N
Cosmos 1680 Rocket 4.1 05:54:06 10° NNW 05:59:12 53° ENE 06:02:54 18° SE
SL-19 R/B 3.9 06:00:16 10° NNE 06:02:48 60° N 06:02:48 60° N
Cosmos 1818 3.8 06:00:32 10° NNW 06:06:02 71° NE 06:11:04 12° SE
Cosmos 1844 Rocket 4.3 06:05:47 17° SE 06:08:33 24° ESE 06:12:56 10° NE
Cosmos 1869 3.1 06:10:04 10° N 06:13:47 78° E 06:14:31 55° SSE
Cosmos 2341 Rocket 3.9 06:11:19 35° SSW 06:14:11 84° W 06:20:27 10° N
COBE Rocket 4.1 06:12:05 10° NNE 06:17:15 75° E 06:19:27 35° S
Cosmos 864 Rocket 4.5 06:17:48 32° S 06:21:01 89° E 06:27:23 10° N
Cosmos 1437 Rocket 4.2 06:19:56 22° SE 06:21:26 29° E 06:24:45 10° NNE
IDEFIX/ARIANE 42P 2.8 06:20:08 10° NNE 06:25:21 62° ESE 06:27:56 29° S
SL-16 R/B 2.9 06:25:23 10° NW 06:30:31 36° WSW 06:32:00 31° SW
Cosmos 1900 4.4 06:31:55 35° SSW 06:34:05 80° ESE 06:39:12 10° NE
CZ-2C R/B 3.8 06:29:39 10° NNE 06:34:48 45° E 06:38:01 20° SSE
Cosmos 1603 4.4 06:29:57 10° NNW 06:35:36 54° ENE 06:41:11 10° SE
CENTAUR R/B 3.8 06:33:07 12° W 06:38:06 36° NW 06:44:42 10° NNE
Cosmos 2082 4.4 06:36:51 24° WSW 06:39:53 44° WNW 06:45:16 10° NNE
CZ-2C R/B 2.8 06:36:30 17° SSE 06:40:40 73° ENE 06:46:03 10° N
MOZ.5/SAFIR/RUBIN 5/SL-8 3.9 06:39:24 34° SSW 06:41:11 57° W 06:45:45 10° NNW
MSX 3.9 06:35:56 10° NNE 06:41:41 75° ESE 06:45:07 25° S
Cosmos 2227 Rocket 4.2 06:37:53 10° W 06:41:52 19° NW 06:45:53 10° N
CZ-2D R/B 2.4 06:37:10 10° NNE 06:42:29 62° ESE 06:45:38 24° S
Cosmos 1821 Rocket 4.0 06:40:25 24° S 06:44:15 78° E 06:50:25 10° N
Cosmos 1943 3.1 06:38:48 10° NNW 06:44:27 86° WSW 06:49:35 12° SSE
USA 238 DEB 3.7 06:45:17 26° SSW 06:48:48 64° ESE 06:55:22 10° NE
Cosmos 1606 3.3 06:45:32 10° NNW 06:48:48 35° W 06:49:14 33° WSW
USA 238 3.7 06:45:20 26° SSW 06:48:50 63° ESE 06:55:25 10° NE
FENGYUN 3A 4.4 06:43:40 10° NNE 06:48:52 47° E 06:52:47 17° SSE
Cosmos 2218 Rocket 4.2 06:45:40 27° SSW 06:49:03 59° W 06:55:10 10° N
Cosmos 2228 3.0 06:47:24 10° NNW 06:51:40 62° W 06:53:30 32° SSW
Cosmos 1867 3.7 06:49:37 27° SSW 06:52:31 65° ESE 06:57:57 10° NE
Cosmos 2366 rocket 4.4 06:51:04 25° SW 06:54:32 51° WNW 07:00:37 10° N
Cosmos 1544 Rocket 4.1 06:50:42 10° NNW 06:54:54 42° W 06:56:27 30° SW
H-2A R/B 3.3 06:53:43 10° N 06:57:42 71° WNW 06:59:26 32° SSW
NPP 3.8 06:57:05 10° N 07:02:26 66° WNW 07:05:42 24° SSW
ADEOS II 2.4 06:57:27 10° NNE 07:02:40 63° ESE 07:06:30 18° S
Cosmos 1937 Rocket 4.5 07:00:05 20° WSW 07:03:03 36° WNW 07:07:53 10° N
ALOS 3.4 07:01:17 10° NNE 07:05:34 37° E 07:09:34 12° SSE
BlueWalker 3 4.5 07:05:59 10° NW 07:09:00 22° N 07:12:01 10° ENE
Dummy Sat-02 4.5 07:14:17 10° N 07:17:59 87° W 07:20:28 20° S
Resurs 1-4 Rocket 2.3 07:13:22 10° N 07:18:35 61° WNW 07:22:10 20° SW
Cosmos 2123 Rocket 4.3 07:14:54 10° N 07:21:05 68° E 07:27:15 10° SSE
Cosmos 1934 Rocket 4.4 07:15:09 10° S 07:21:20 66° E 07:27:39 10° NNE
SL-16 R/B 2.7 07:17:05 10° SSE 07:23:19 81° ENE 07:29:35 10° NNW
Cosmos 1844 3.8 07:19:48 19° SSW 07:24:02 85° ESE 07:29:52 10° NNE
Cosmos 921 Rocket 2.8 07:21:51 10° NNW 07:26:05 73° WSW 07:30:13 10° S
Cosmos 1606 Rocket 3.6 07:26:00 10° NNW 07:30:26 67° W 07:34:19 13° S
NOSS 3-2 (C) 4.2 07:28:54 13° WSW 07:33:26 40° NW 07:39:21 10° NNE
Cosmos 2263 Rocket 4.1 07:29:40 10° W 07:33:31 19° NW 07:37:23 10° N
USA 267 3.5 07:27:30 10° NE 07:33:58 59° SE 07:39:25 15° SSW
Cosmos 2058 3.5 07:34:27 10° S 07:38:23 55° E 07:42:22 10° NNE
Meteor 1-28 Rocket 3.0 07:35:58 13° S 07:39:05 64° W 07:42:37 10° NNW
BREEZE-M DEB (TANK) 3.9 07:34:41 15° SSW 07:40:50 36° SSE 07:43:56 10° E
Cosmos 1726 Rocket 3.6 07:41:06 10° NNW 07:45:30 62° W 07:49:50 10° S
Iridium 2 2.5 07:44:41 21° SSW 07:46:07 61° W 07:48:34 10° N
Cosmos 1238 Rocket 3.3 07:44:56 10° N 07:48:13 47° ENE 07:51:09 10° SSE
Alouette 2 Rocket 3.5 07:44:25 11° SSW 07:48:55 86° WNW 07:52:38 10° NNE
Cosmos 1844 Rocket 3.1 07:47:26 14° SW 07:52:02 51° WNW 07:57:30 10° NNE
Cosmos 724 4.2 07:49:17 10° NW 07:55:07 82° WSW 08:00:58 10° SSE
Cosmos 1437 Rocket 4.4 07:54:44 12° WSW 07:57:07 20° WNW 07:59:56 10° NNW
SAR-Lupe-1 4.0 07:58:03 10° N 08:01:38 76° WNW 08:05:11 10° SSW
IDEFIX/ARIANE 42P 4.3 08:00:42 10° NNW 08:04:22 20° WNW 08:08:00 10° WSW
ASTEX 1 4.1 08:04:28 10° SSW 08:08:54 35° W 08:13:22 10° NNW
USA 234 4.1 08:02:40 10° ESE 08:09:01 56° NNE 08:15:23 10° NW
CZ-2C R/B 3.0 08:08:24 10° NNE 08:12:52 52° E 08:17:20 10° S
Envisat 3.1 08:08:50 10° NNE 08:13:57 85° ESE 08:19:00 10° SSW
CZ-2C R/B 4.4 08:09:57 10° N 08:14:20 26° WNW 08:18:31 10° WSW
Timation 2 Rocket 4.1 08:08:47 10° SSW 08:15:26 76° WNW 08:21:50 10° NNE
Cosmos 2278 Rocket 4.3 08:12:45 10° SSE 08:17:10 24° ESE 08:21:36 10° NE
Lacrosse 5 4.3 08:16:39 10° SE 08:18:40 12° ESE 08:20:41 10° E
CZ-2C R/B 4.3 08:18:30 10° WSW 08:21:30 15° W 08:24:33 10° NW
CZ-2D R/B 3.8 08:18:13 10° NNW 08:21:59 20° WNW 08:25:42 10° WSW
Cosmos 2058 Rocket 3.5 08:22:09 10° NNW 08:26:21 43° W 08:30:30 10° SSW
Genesis I 3.2 08:22:55 10° NNW 08:26:34 78° NE 08:30:10 10° SE
Cosmos 1125 Rocket 4.0 08:21:49 10° SW 08:26:53 47° WNW 08:32:00 10° N
BREEZE M DEB (TANK) 4.0 08:16:21 10° WNW 08:27:04 73° NNE 08:30:28 10° ESE
UNK 4.3 08:23:02 10° SSW 08:27:20 39° W 08:31:40 10° NNW
Cosmos 1271 Rocket 3.8 08:24:01 10° SSE 08:27:23 41° E 08:30:48 10° NNE
Cosmos 1544 2.9 08:25:04 10° SSW 08:27:31 37° W 08:30:00 10° N
Cosmos 1758 Rocket 3.9 08:26:46 10° S 08:31:10 73° E 08:35:34 10° NNE
